Weather in Chendek

Russia / Altai Republic     50°15′55″N   85°57′30″E
temp.,
°C
wind,
m/s
gust,
m/s
humid.,
%
clouds,
%
prec.,
mm/h
press.,
hPa
HPBL,
m
12 may, wed
wed1201:00+5w1293100 1.0 1013294
04:00+4w129198 0.3 1013201
07:00+4wnw118796 0.4 1014331
10:00+6w226894 0.3 1012986
13:00+6nne1270100 1.4 1013894
16:00+4ssw2290100 4.1 1015336
19:00+3se2293100 5.8 1016273
22:00+2sw1199100 3.3 1018144
13 may, thu
thu1301:00+2w119799 3.5 1018135
04:00+2wnw119590 0.3 1018183
07:00+2wnw119174 0.4 1019317
10:00+5ssw217770 0.2 1017733
13:00+8sw116272 0.7 10151318
16:00+10ssw125347 0.3 10131564
19:00+8w2362100 0.9 10121144
22:00+5nne1183100 0.5 1014223
14 may, fri
fri1401:00+4ssw018999 1.1 1015325
04:00+3sse0194100 0.5 1014320
07:00+3wsw1198100 1.5 1015282
10:00+3sw2295100 1.2 1015256
13:00+6ese1175100 2.3 1015727
16:00+8e126794 1.8 1015985
19:00+7nne126664 3.8 1017433
22:00+4nne228331 0.7 102249
15 may, sat
sat1501:00+1ene228628 0.7 102442
04:000e228882 0.0 102627
07:00+3ese128156 0.0 1026265
10:00+7se226332 0.0 1024983
13:00+11sse235013 0.0 10221346
16:00+13sse22435 0.0 10201632
19:00+12sse124721 0.0 1020842
22:00+7e1268100 0.0 102315
16 may, sun
sun1601:00+5e117245 0.0 102311
04:00+4e11754 0.0 102210
07:00+6ne11710 0.0 102247
10:00+11sw11562 0.0 1020482
13:00+15wsw22395 0.0 10181077
16:00+17wsw223128 0.0 10151470
19:00+15n234461 0.0 1015994
22:00+10nnw115949 0.0 101713